This is the latest recevied weather packets stored in our database for station/object KJ5SC. If no packets are shown the sender has not sent any weather packets the latest 10 day(s).
| Time | Temp. | Humidity | Pressure | Rain* | Wind** | Luminosity | Snow |
|---|---|---|---|---|---|---|---|
| 1787953673 | 23.89° C | 96% | 1017.6 hPa | 0 mm | - | 13 W/m² | - |
| 1787953368 | 23.33° C | 96% | 1018 hPa | 0 mm | - | 12 W/m² | - |
| 1787953066 | 23.33° C | 96% | 1018.2 hPa | 0 mm | - | 12 W/m² | - |
| 1787952766 | 23.33° C | 95% | 1018.3 hPa | 0 mm | - | 11 W/m² | - |
| 1787952460 | 23.33° C | 95% | 1018.5 hPa | 0 mm | - | 11 W/m² | - |
| 1787952157 | 23.33° C | 95% | 1018.5 hPa | 0 mm | - | 11 W/m² | - |
| 1787951855 | 23.33° C | 95% | 1018.9 hPa | 0 mm | - | 12 W/m² | - |
| 1787951551 | 23.33° C | 95% | 1018.9 hPa | 0 mm | - | 13 W/m² | - |
| 1787951247 | 23.33° C | 94% | 1018.9 hPa | 0 mm | - | 13 W/m² | - |
| 1787950943 | 23.33° C | 94% | 1019 hPa | 0 mm | - | 14 W/m² | - |
| 1787950638 | 23.33° C | 93% | 1019.2 hPa | 0 mm | - | 14 W/m² | - |
| 1787950334 | 23.33° C | 93% | 1019.1 hPa | 1.27 mm | - | 14 W/m² | - |
| 1787950030 | 23.33° C | 92% | 1018.8 hPa | 3.05 mm | - | 15 W/m² | - |
| 1787949725 | 23.89° C | 92% | 1018.7 hPa | 3.05 mm | - | 15 W/m² | - |
| 1787949424 | 25° C | 91% | 1018.8 hPa | 6.1 mm | - | 15 W/m² | - |
| 1787949120 | 25.56° C | 91% | 1018.8 hPa | 10.67 mm | - | 15 W/m² | - |
| 1787948816 | 26.11° C | 91% | 1018.5 hPa | 6.1 mm | - | 15 W/m² | - |
| 1787948515 | 26.67° C | 92% | 1018.8 hPa | 0 mm | - | 12 W/m² | - |
| 1787948211 | 26.67° C | 93% | 1018.5 hPa | 0 mm | - | 11 W/m² | - |
| 1787947909 | 26.67° C | 92% | 1018.3 hPa | 0 mm | - | 13 W/m² | - |
| 1787947606 | 27.22° C | 91% | 1017.8 hPa | 0 mm | - | 28 W/m² | - |
| 1787947304 | 27.78° C | 92% | 1017.8 hPa | 0 mm | - | 70 W/m² | - |
| 1787947004 | 28.33° C | 91% | 1018 hPa | 0 mm | - | 89 W/m² | - |
| 1787946702 | 28.33° C | 90% | 1017.8 hPa | 0 mm | - | 98 W/m² | - |
| 1787946397 | 28.89° C | 88% | 1018.2 hPa | 1.78 mm | - | 120 W/m² | - |
* Rain latest hour (hover to see other rain measurements)
** Current wind speed in m/s (hover to see current wind gust speed)